15 daagse weersverwachting Braga (PT)

  • Overzicht
  • Per uur
  • 15 dagen
  • Extra
  • Vergelijk
  • Kaarten
  • Dagkaart
  • Meer »
  • Info
  • Statistieken
  • Directe link
    Temp 6h Neerslag Wind  
 07:01     20:09    Daglengte: 13:08 Morgen
01:00
14°
3.5 mm
2
07:00
14°
4.8 mm
2
13:00
16°
4.8 mm
3
19:00
15°
2.2 mm
3
 06:59     20:10    Daglengte: 13:11 Zaterdag 11 Apr
01:00
12°
 
1
07:00
11°
 
1
13:00
16°
 
1
19:00
16°
 
2
 06:58     20:11    Daglengte: 13:13 Zondag 12 Apr
01:00
11°
 
1
07:00
10°
 
1
13:00
17°
8.9 mm
2
19:00
15°
 
3
Locatie info
Region: Braga
Latitude: 41.5516°N
Longitude: -8.4291°E
188 masl
Postcode: 4700-442
Temp/Neerslag /Baro Onweer/Dauwpunt
    Temp Baro 1h Neerslag Dauwpunt Wind UV Bewolking  
 07:03     20:08    Daglengte: 13:05 Vandaag
22:00
14°
1019.4 hPa 2.0 mm
49%
14.2°
2
Windvlaag: 1.6 km/h
88%
23:00
14°
1019.5 hPa 0.5 mm
82%
14.0°
2
Windvlaag: 1.7 km/h
90%
 07:01     20:09    Daglengte: 13:08 Morgen
00:00
14°
1019.5 hPa 0.5 mm
82%
14.0°
2
Windvlaag: 1.4 km/h
90%
01:00
14°
1019.5 hPa 0.5 mm
82%
14.0°
2
Windvlaag: 1.4 km/h
90%
02:00
14°
1019.4 hPa 0.5 mm
82%
13.8°
2
Windvlaag: 1.6 km/h
90%
03:00
14°
1019.2 hPa 0.6 mm
82%
13.6°
2
Windvlaag: 1.5 km/h
90%
04:00
14°
1019.0 hPa 0.6 mm
82%
13.5°
2
Windvlaag: 1.6 km/h
89%
05:00
14°
1019.1 hPa 0.9 mm
82%
13.6°
2
Windvlaag: 1.6 km/h
90%
06:00
14°
1019.2 hPa 1.1 mm
82%
13.6°
2
Windvlaag: 1.6 km/h
88%
07:00
14°
1019.4 hPa 1.1 mm
82%
13.5°
2
Windvlaag: 1.4 km/h
89%
08:00
14°
1019.9 hPa 1.6 mm
82%
13.4°
2
Windvlaag: 1.2 km/h
90%
09:00
14°
1020.4 hPa 1.2 mm
82%
13.4°
2
Windvlaag: 1.1 km/h
89%
10:00
14°
1020.7 hPa 0.9 mm
79%
13.6°
2
Windvlaag: 1.1 km/h
86%
11:00
15°
1021.1 hPa
70%
13.8°
2
Windvlaag: 1.3 km/h
82%
12:00
16°
1021.3 hPa
29%
13.9°
2
Windvlaag: 1.2 km/h
78%
13:00
16°
1021.1 hPa 1.1 mm
32%
13.1°
3
Windvlaag: 1.1 km/h
70%
14:00
16°
1020.9 hPa
74%
13.3°
3
Windvlaag: 1.6 km/h
54%
15:00
16°
1020.8 hPa 1.2 mm
82%
13.0°
4
Windvlaag: 1.9 km/h
46%
16:00
16°
1020.5 hPa
75%
12.6°
3
Windvlaag: 1.8 km/h
42%
17:00
16°
1020.4 hPa
70%
12.7°
3
Windvlaag: 1.2 km/h
64%
18:00
16°
1020.5 hPa 1.0 mm
67%
12.3°
3
Windvlaag: 1.2 km/h
63%
19:00
15°
1020.7 hPa
23%
11.8°
3
Windvlaag: 1 km/h
57%
20:00
14°
1020.9 hPa
59%
11.5°
2
Windvlaag: 0.9 km/h
64%
21:00
14°
1021.5 hPa
59%
11.4°
2
Windvlaag: 1 km/h
72%
22:00
13°
1022.1 hPa
22%
11.4°
1
Windvlaag: 1.3 km/h
80%
23:00
13°
1022.2 hPa
32%
11.4°
1
Windvlaag: 1.3 km/h
82%
 06:59     20:10    Daglengte: 13:11 Zaterdag 11 Apr
00:00
12°
1022.1 hPa
64%
11.5°
1
Windvlaag: 1.2 km/h
84%
01:00
12°
1021.9 hPa
20%
11.7°
1
Windvlaag: 0.7 km/h
78%
02:00
12°
1021.6 hPa
16%
11.5°
1
Windvlaag: 0.7 km/h
90%
03:00
12°
1021.3 hPa
19%
11.4°
1
Windvlaag: 0.5 km/h
87%
04:00
12°
1020.9 hPa
27%
11.2°
1
Windvlaag: 0.4 km/h
86%
05:00
12°
1020.8 hPa
69%
11.0°
1
Windvlaag: 0.6 km/h
89%
06:00
11°
1020.8 hPa
27%
10.9°
1
Windvlaag: 0.7 km/h
89%
07:00
11°
1020.9 hPa
60%
10.8°
1
Windvlaag: 0.7 km/h
89%
08:00
11°
1021.3 hPa
21%
10.8°
1
Windvlaag: 0.6 km/h
87%
09:00
12°
1021.6 hPa
25%
10.6°
1
Windvlaag: 0.4 km/h
81%
10:00
13°
1021.5 hPa
55%
10.4°
1
Windvlaag: 0.6 km/h
78%
11:00
14°
1021.4 hPa
17%
10.5°
1
Windvlaag: 0.9 km/h
68%
12:00
15°
1021.1 hPa
14%
10.6°
1
Windvlaag: 0.6 km/h
69%
13:00
16°
1020.6 hPa
16%
10.7°
1
Windvlaag: 0.6 km/h
66%
14:00
16°
1020.1 hPa
19%
11.3°
2
Windvlaag: 0.5 km/h
64%
15:00
17°
1019.5 hPa
14%
11.6°
2
Windvlaag: 0.3 km/h
62%
16:00
17°
1018.7 hPa
21%
11.2°
2
Windvlaag: -0.1 km/h
73%
17:00
17°
1018.2 hPa
21%
11.3°
2
Windvlaag: -0.4 km/h
52%
18:00
17°
1017.8 hPa
22%
11.6°
3
Windvlaag: 0.6 km/h
38%
19:00
16°
1017.9 hPa
21%
11.3°
2
Windvlaag: 1.3 km/h
39%
20:00
14°
1018.1 hPa
21%
11.6°
2
Windvlaag: 1.4 km/h
52%
21:00
13°
1018.5 hPa
21%
11.1°
2
Windvlaag: 1.4 km/h
61%
22:00
12°
1019.0 hPa
21%
10.8°
2
Windvlaag: 1.1 km/h
71%
23:00
12°
1019.0 hPa
22%
10.3°
1
Windvlaag: 0.5 km/h
44%
 06:58     20:11    Daglengte: 13:13 Zondag 12 Apr
00:00
12°
1018.8 hPa
23%
10.0°
1
Windvlaag: 0.2 km/h
22%
01:00
11°
1018.5 hPa
26%
9.7°
1
Windvlaag: 0.4 km/h
29%
02:00
11°
1017.9 hPa
25%
9.8°
1
Windvlaag: 0 km/h
30%
03:00
10°
1017.2 hPa
73%
9.4°
1
Windvlaag: 0.5 km/h
50%
04:00
10°
1016.6 hPa
84%
9.2°
1
Windvlaag: -0.6 km/h
63%
05:00
10°
1016.1 hPa
67%
9.4°
1
Windvlaag: -0.7 km/h
65%
06:00
10°
1015.9 hPa
42%
9.5°
1
Windvlaag: 0.2 km/h
70%
07:00
10°
1015.9 hPa
45%
9.1°
1
Windvlaag: 0.3 km/h
59%
08:00
11°
1015.8 hPa
38%
9.4°
1
Windvlaag: 0 km/h
47%
09:00
12°
1015.8 hPa 1.4 mm
92%
9.7°
1
Windvlaag: -0.2 km/h
46%
10:00
13°
1015.7 hPa 1.5 mm
98%
10.0°
1
Windvlaag: -0.7 km/h
47%
11:00
14°
1015.5 hPa 2.1 mm
94%
10.4°
2
Windvlaag: 0.7 km/h
51%
12:00
16°
1015.1 hPa 2.0 mm
39%
11.0°
2
Windvlaag: 0.7 km/h
57%
13:00
17°
1014.4 hPa 1.9 mm
85%
11.5°
2
Windvlaag: 0.1 km/h
51%
14:00
18°
1013.3 hPa
96%
12.0°
3
Windvlaag: 4.3 km/h
32%
15:00
17°
1012.7 hPa
96%
11.9°
3
Windvlaag: 5.1 km/h
58%
16:00
17°
1011.8 hPa
89%
11.9°
3
Windvlaag: 5.1 km/h
33%
17:00
17°
1011.1 hPa
89%
11.8°
3
Windvlaag: 5.4 km/h
35%
18:00
16°
1010.5 hPa
44%
11.6°
3
Windvlaag: 5.2 km/h
37%
19:00
15°
1010.0 hPa
36%
11.2°
3
Windvlaag: 0.8 km/h
39%
20:00
15°
1009.2 hPa 5.5 mm
100%
11.1°
3
Windvlaag: 5.5 km/h
66%
21:00
14°
1009.2 hPa 5.5 mm
100%
10.9°
3
Windvlaag: 5.8 km/h
66%
Temp/Neerslag /Baro Onweer/Dauwpunt
    Temp Baro Neerslag Dauwpunt Wind Bewolking  
 07:03     20:08    Daglengte: 13:05 Vandaag
22:00
14°
1019.4 hPa 2.0 mm 14.2°
2
88%
 07:01     20:09    Daglengte: 13:08 Morgen
01:00
14°
1019.5 hPa 1.5 mm 14.0°
2
90%
04:00
14°
1019.0 hPa 1.7 mm 13.5°
2
89%
07:00
14°
1019.4 hPa 3.1 mm 13.5°
2
89%
10:00
14°
1020.7 hPa 3.7 mm 13.6°
2
86%
13:00
16°
1021.1 hPa 1.1 mm 13.1°
3
70%
16:00
16°
1020.5 hPa 1.2 mm 12.6°
3
42%
19:00
15°
1020.7 hPa 1.0 mm 11.8°
3
57%
22:00
13°
1022.1 hPa   11.4°
1
80%
 06:59     20:10    Daglengte: 13:11 Zaterdag 11 Apr
01:00
12°
1021.9 hPa   11.7°
1
78%
04:00
12°
1020.9 hPa   11.2°
1
86%
07:00
11°
1020.9 hPa   10.8°
1
89%
10:00
13°
1021.5 hPa   10.4°
1
78%
13:00
16°
1020.6 hPa   10.7°
1
66%
16:00
17°
1018.7 hPa   11.2°
2
73%
19:00
16°
1017.9 hPa   11.3°
2
39%
22:00
12°
1019.0 hPa   10.8°
2
71%
 06:58     20:11    Daglengte: 13:13 Zondag 12 Apr
01:00
11°
1018.5 hPa   9.7°
1
29%
04:00
10°
1016.6 hPa   9.2°
1
63%
07:00
10°
1015.9 hPa   9.1°
1
59%
10:00
13°
1015.7 hPa 2.9 mm 10.0°
1
47%
13:00
17°
1014.4 hPa 6.0 mm 11.5°
2
51%
16:00
17°
1011.8 hPa   11.9°
3
33%
19:00
15°
1010.0 hPa   11.2°
3
39%
22:00
13°
1009.1 hPa 16.6 mm 10.7°
2
69%
 06:56     20:12    Daglengte: 13:16 Maandag 13 Apr
01:00
10°
1008.4 hPa 16.9 mm 10.0°
1
66%
04:00
10°
1007.3 hPa 10.7 mm 9.6°
1
84%
07:00
11°
1006.7 hPa 13.1 mm 9.4°
1
92%
10:00
14°
1006.8 hPa 13.5 mm 9.3°
2
67%
13:00
17°
1006.9 hPa 13.7 mm 8.2°
3
42%
16:00
16°
1007.0 hPa 13.8 mm 9.6°
3
44%
19:00
15°
1007.2 hPa 13.8 mm 10.6°
2
47%
22:00
12°
1008.2 hPa 13.8 mm 9.4°
1
41%
 06:55     20:13    Daglengte: 13:18 Dinsdag 14 Apr
01:00
Voelt als: 9.2°
1009.0 hPa 13.8 mm 8.2°
1
35%
04:00
Voelt als: 8.1°
1008.5 hPa 13.8 mm 7.2°
2
59%
07:00
Voelt als: 7.0°
1008.0 hPa 13.8 mm 6.2°
2
82%
10:00
13°
1007.8 hPa 13.8 mm 8.4°
3
58%
13:00
18°
1007.7 hPa 13.8 mm 9.6°
4
33%
16:00
17°
1007.2 hPa 13.9 mm 11.1°
3
62%
19:00
14°
1006.7 hPa 13.9 mm 11.8°
3
90%
22:00
13°
1006.6 hPa 14.0 mm 10.2°
2
63%
 06:53     20:14    Daglengte: 13:21 Woensdag 15 Apr
01:00
12°
1006.4 hPa 14.0 mm 8.8°
2
37%
04:00
12°
1005.6 hPa 14.0 mm 8.4°
3
62%
07:00
12°
1004.9 hPa 14.8 mm 8.0°
3
87%
10:00
13°
1005.4 hPa 15.3 mm 8.8°
5
86%
13:00
14°
1006.0 hPa 16.8 mm 9.6°
7
85%
16:00
13°
1007.7 hPa 17.5 mm 9.5°
6
84%
19:00
12°
1009.5 hPa 17.8 mm 9.4°
4
83%
22:00
12°
1009.2 hPa 17.8 mm 8.4°
4
84%
 06:51     20:16    Daglengte: 13:25 Donderdag 16 Apr
01:00
11°
1008.7 hPa 20.5 mm 7.8°
4
85%
04:00
11°
1007.8 hPa 25.8 mm 8.6°
4
88%
07:00
11°
1007.0 hPa 26.8 mm 9.4°
5
92%
10:00
12°
1007.8 hPa 28.3 mm 10.1°
6
64%
13:00
14°
1008.6 hPa 30.0 mm 10.9°
7
36%
16:00
13°
1009.0 hPa 34.1 mm 10.1°
6
60%
19:00
13°
1009.4 hPa 68.8 mm 9.3°
5
83%
 06:50     20:17    Daglengte: 13:27 Vrijdag 17 Apr
01:00
11°
1011.1 hPa 69.4 mm 8.6°
4
89%
07:00
10°
1011.3 hPa 69.4 mm 8.8°
4
90%
13:00
14°
1012.5 hPa 69.7 mm 11.5°
3
86%
19:00
13°
1012.6 hPa 72.8 mm 9.0°
2
40%
 06:48     20:18    Daglengte: 13:30 Zaterdag 18 Apr
01:00
Voelt als: 9.0°
1014.7 hPa 73.5 mm 8.2°
1
23%
07:00
Voelt als: 6.5°
1015.3 hPa 73.5 mm 6.2°
1
62%
13:00
17°
1016.1 hPa 73.5 mm 8.8°
2
37%
19:00
15°
1015.8 hPa 73.8 mm 10.8°
4
11%
 06:47     20:19    Daglengte: 13:32 Zondag 19 Apr
01:00
Voelt als: 7.4°
1018.2 hPa 73.9 mm 7.5°
2
0%
07:00
Voelt als: 4.9°
1019.5 hPa 73.9 mm 5.2°
2
1%
13:00
19°
1019.3 hPa 73.9 mm 3.8°
2
1%
19:00
14°
1013.2 hPa 1.2 mm 11.0°
3
50%
 06:45     20:20    Daglengte: 13:35 Maandag 20 Apr
01:00
11°
1014.6 hPa 0.7 mm 9.4°
1
47%
07:00
11°
1014.1 hPa 0.7 mm 8.9°
1
48%
13:00
15°
1014.3 hPa 0.5 mm 10.7°
1
47%
19:00
14°
1013.2 hPa 1.0 mm 10.9°
3
44%
 06:44     20:21    Daglengte: 13:37 Dinsdag 21 Apr
01:00
11°
1014.7 hPa 0.4 mm 9.4°
1
45%
07:00
11°
1013.9 hPa 0.7 mm 8.8°
2
56%
13:00
15°
1014.2 hPa 1.1 mm 10.2°
2
49%
19:00
14°
1012.8 hPa 1.1 mm 10.9°
3
40%
 06:42     20:22    Daglengte: 13:40 Woensdag 22 Apr
01:00
12°
1014.0 hPa 1.9 mm 9.7°
2
51%
07:00
11°
1013.4 hPa 1.9 mm 8.9°
2
49%
13:00
15°
1013.8 hPa 0.7 mm 10.2°
1
41%
19:00
14°
1012.6 hPa 1.2 mm 10.8°
3
49%
 06:41     20:23    Daglengte: 13:42 Donderdag 23 Apr
01:00
11°
1014.1 hPa 0.7 mm 9.2°
2
40%
07:00
11°
1013.7 hPa 0.5 mm 8.5°
2
32%
13:00
16°
1013.5 hPa 0.4 mm 10.4°
1
36%
19:00
15°
1012.8 hPa 1.4 mm 11.0°
3
43%
 06:40     20:24    Daglengte: 13:44 Vrijdag 24 Apr
01:00
11°
1014.8 hPa 0.8 mm 9.2°
2
43%
07:00
11°
1014.5 hPa 0.7 mm 8.2°
1
49%
13:00
16°
1014.5 hPa 0.4 mm 10.4°
1
44%
19:00
15°
1013.7 hPa 0.7 mm 11.1°
2
33%
  CAPE Lifted Index Hail Supercell Tornado SRH 3km CL BTM PRES CL TOP PRES Swiss DWD icon SMHI TS
 07:03     20:08    Daglengte: 13:05 Vandaag
22:00 34 J/kg 1.0 K 0 % 0 % 0 % 0 m²/s² 0 0 7.09 80
23:00 40 J/kg 1.1 K 0 % 0 % 0 % 0 m²/s² 0 0 7.19 80
 07:01     20:09    Daglengte: 13:08 Morgen
00:00 38 J/kg 1.2 K 0 % 0 % 0 % 0 m²/s² 0 0 6.81 80
01:00 51 J/kg 1.2 K 0 % 0 % 0 % 0 m²/s² 0 0 6.81 80
02:00 56 J/kg 1.5 K 0 % 0 % 0 % 0 m²/s² 0 0 7.41 80
03:00 55 J/kg 1.8 K 0 % 0 % 0 % 0 m²/s² 0 0 7.89 80
04:00 48 J/kg 1.9 K 0 % 0 % 0 % 0 m²/s² 0 0 7.81 80
05:00 60 J/kg 2.0 K 0 % 0 % 0 % 0 m²/s² 0 0 8.66 80
06:00 64 J/kg 2.1 K 0 % 0 % 0 % 0 m²/s² 0 0 10.29 45
07:00 72 J/kg 2.6 K 0 % 0 % 0 % 0 m²/s² 0 0 8.03 61
08:00 80 J/kg 2.9 K 0 % 0 % 0 % 0 m²/s² 0 0 4.7 61
09:00 78 J/kg 3.1 K 0 % 0 % 0 % 0 m²/s² 0 0 3.79 53
10:00 61 J/kg 3.3 K 0 % 0 % 0 % 0 m²/s² 0 0 4.41 61
11:00 79 J/kg 3.2 K 0 % 0 % 0 % 0 m²/s² 0 0 4.37 3
12:00 112 J/kg 2.6 K 0 % 0 % 0 % 0 m²/s² 0 0 4.22 3
13:00 129 J/kg 2.3 K 0 % 0 % 0 % 0 m²/s² 0 0 4.1 3
14:00 119 J/kg 2.1 K 0 % 0 % 0 % 0 m²/s² 0 0 4.02 3
15:00 89 J/kg 2.4 K 0 % 0 % 0 % 0 m²/s² 0 0 5.25 80
16:00 39 J/kg 2.4 K 0 % 0 % 0 % 0 m²/s² 0 0 5.94 3
17:00 18 J/kg 2.4 K 0 % 0 % 0 % 0 m²/s² 0 0 6.33 3
18:00 9 J/kg 2.8 K 0 % 0 % 0 % 0 m²/s² 0 0 8.56 3
19:00 2 J/kg 3.3 K 0 % 0 % 0 % 0 m²/s² 0 0 11.85 2
20:00 0 J/kg 3.2 K 0 % 0 % 0 % 0 m²/s² 0 0 11.42 3
21:00 1 J/kg 3.2 K 0 % 0 % 0 % 0 m²/s² 0 0 10.82 3
22:00 0 J/kg 3.4 K 0 % 0 % 0 % 0 m²/s² 0 0 11.02 3
23:00 2 J/kg 3.5 K 0 % 0 % 0 % 0 m²/s² 0 0 11.39 3
 06:59     20:10    Daglengte: 13:11 Zaterdag 11 Apr
00:00 1 J/kg 3.5 K 0 % 0 % 0 % 0 m²/s² 0 0 11.69 3
01:00 0 J/kg 3.3 K 0 % 0 % 0 % 0 m²/s² 0 0 11.49 3
02:00 2 J/kg 3.3 K 0 % 0 % 0 % 0 m²/s² 0 0 12.57 3
03:00 0 J/kg 3.1 K 0 % 0 % 0 % 0 m²/s² 0 0 11.95 3
04:00 6 J/kg 2.5 K 0 % 0 % 0 % 0 m²/s² 0 0 10.99 3
05:00 14 J/kg 2.2 K 0 % 0 % 0 % 0 m²/s² 0 0 9.49 45
06:00 20 J/kg 1.8 K 0 % 0 % 0 % 0 m²/s² 0 0 8.82 45
07:00 26 J/kg 1.6 K 0 % 0 % 0 % 0 m²/s² 0 0 9.4 45
08:00 29 J/kg 1.6 K 0 % 0 % 0 % 0 m²/s² 0 0 10.03 45
09:00 28 J/kg 1.7 K 0 % 0 % 0 % 0 m²/s² 0 0 9.8 45
10:00 33 J/kg 1.5 K 0 % 0 % 0 % 0 m²/s² 0 0 10.29 3
11:00 42 J/kg 0.9 K 0 % 0 % 0 % 0 m²/s² 0 0 9.69 3
12:00 55 J/kg 0.4 K 0 % 0 % 0 % 0 m²/s² 0 0 9.19 3
13:00 47 J/kg 0.4 K 0 % 0 % 0 % 0 m²/s² 0 0 9.19 3
14:00 76 J/kg 0.0 K 0 % 0 % 0 % 0 m²/s² 0 0 8.43 3
15:00 108 J/kg -0.3 K 0 % 0 % 0 % 0 m²/s² 0 0 8.46 3
16:00 85 J/kg 0.2 K 0 % 0 % 0 % 0 m²/s² 0 0 6.98 3
17:00 51 J/kg 0.9 K 0 % 0 % 0 % 0 m²/s² 0 0 4.56 3
18:00 57 J/kg 1.0 K 0 % 0 % 0 % 0 m²/s² 0 0 3.88 3
19:00 32 J/kg 1.8 K 0 % 0 % 0 % 0 m²/s² 0 0 4.68 3
20:00 1 J/kg 3.2 K 0 % 0 % 0 % 0 m²/s² 0 0 6.17 3
21:00 0 J/kg 4.1 K 0 % 0 % 0 % 0 m²/s² 0 0 6.89 3
22:00 0 J/kg 4.3 K 0 % 0 % 0 % 0 m²/s² 0 0 6.79 3
23:00 0 J/kg 4.5 K 0 % 0 % 0 % 0 m²/s² 0 0 7.23 2
 06:58     20:11    Daglengte: 13:13 Zondag 12 Apr
00:00 1 J/kg 4.5 K 0 % 0 % 0 % 0 m²/s² 0 0 7.38 1
01:00 1 J/kg 4.5 K 0 % 0 % 0 % 0 m²/s² 0 0 7.62 45
02:00 0 J/kg 4.5 K 0 % 0 % 0 % 0 m²/s² 0 0 8.07 45
03:00 0 J/kg 4.4 K 0 % 0 % 0 % 0 m²/s² 0 0 8.06 45
04:00 2 J/kg 4.4 K 0 % 0 % 0 % 0 m²/s² 0 0 8.36 45
05:00 2 J/kg 4.5 K 0 % 0 % 0 % 0 m²/s² 0 0 8.58 45
06:00 1 J/kg 4.4 K 0 % 0 % 0 % 0 m²/s² 0 0 8.57 45
07:00 0 J/kg 4.3 K 0 % 0 % 0 % 0 m²/s² 0 0 8.8 45
08:00 0 J/kg 4.2 K 0 % 0 % 0 % 0 m²/s² 0 0 9.06 45
09:00 0 J/kg 4.1 K 0 % 0 % 0 % 0 m²/s² 0 0 9.23 3
10:00 1 J/kg 4.1 K 0 % 0 % 0 % 0 m²/s² 0 0 9.23 2
11:00 1 J/kg 3.6 K 0 % 0 % 0 % 0 m²/s² 0 0 8.88 2
12:00 1 J/kg 2.9 K 0 % 0 % 0 % 0 m²/s² 0 0 8.03 3
13:00 23 J/kg 2.1 K 0 % 0 % 0 % 0 m²/s² 0 0 7.38 2
14:00 52 J/kg 1.5 K 0 % 0 % 0 % 0 m²/s² 0 0 7.05 2
15:00 43 J/kg 1.9 K 0 % 0 % 0 % 0 m²/s² 0 0 7.45 3
16:00 8 J/kg 2.1 K 0 % 0 % 0 % 0 m²/s² 0 0 7.65 2
17:00 7 J/kg 2.1 K 0 % 0 % 0 % 0 m²/s² 0 0 7.53 2
18:00 0 J/kg 2.6 K 0 % 0 % 0 % 0 m²/s² 0 0 6.47 2
19:00 1 J/kg 3.3 K 0 % 0 % 0 % 0 m²/s² 0 0 6.21 2
20:00 0 J/kg 3.7 K 0 % 0 % 0 % 0 m²/s² 0 0 6.43
21:00 4 J/kg 4.1 K 0 % 0 % 0 % 0 m²/s² 0 0 7.16
Temp Baro Wind Neerslag
  EWN Forecast EWN WRFDA DWD ICON FMI HIRLAM MET Norway GFS
 07:03     20:08    Daglengte: 13:05 Vandaag
22:00 14.4° 1019.4 hPa 2.0 m/s 2.0 mm 14.5° 1018.3 hPa 2.0 m/s 1.9 mm 14.6° 1019.0 hPa 1.0 m/s 1.5 mm 14.4° 1019.2 hPa 2.3 m/s 0.0 mm 14.0° 1019.8 hPa 2.2 m/s 14.2° 1019.3 hPa 1.3 m/s
 07:01     20:09    Daglengte: 13:08 Morgen
01:00 14.2° 1019.5 hPa 2.0 m/s 1.5 mm 14.2° 1019.3 hPa 1.9 m/s 6.2 mm 14.3° 1019.8 hPa 1.9 m/s 1.0 mm 14.3° 1019.2 hPa 2.1 m/s 0.0 mm 13.6° 1019.6 hPa 2.4 m/s 14.0° 1020.1 hPa 1.2 m/s
04:00 13.8° 1019.0 hPa 2.4 m/s 1.7 mm 13.9° 1017.9 hPa 2.7 m/s 7.1 mm 13.8° 1018.9 hPa 1.4 m/s 1.1 mm 13.8° 1019.0 hPa 2.6 m/s 0.0 mm 13.4° 1019.3 hPa 2.8 m/s 12.7° 1018.8 hPa 0.8 m/s
07:00 13.8° 1019.4 hPa 1.8 m/s 3.1 mm 13.7° 1018.7 hPa 1.7 m/s 11.5 mm 13.8° 1019.6 hPa 1.3 m/s 0.5 mm 13.8° 1019.5 hPa 1.3 m/s 0.0 mm 13.3° 1019.3 hPa 3.0 m/s 12.1° 1019.8 hPa 0.9 m/s
10:00 14.2° 1020.7 hPa 1.8 m/s 3.7 mm 14.2° 1019.5 hPa 2.3 m/s 13.3 mm 14.2° 1021.7 hPa 1.1 m/s 1.5 mm 14.0° 1020.8 hPa 1.4 m/s 0.0 mm 14.2° 1020.7 hPa 2.4 m/s 16.1° 1020.1 hPa 1.5 m/s
13:00 15.9° 1021.1 hPa 2.6 m/s 1.1 mm 17.9° 1019.9 hPa 3.6 m/s 13.6 mm 15.5° 1021.4 hPa 1.5 m/s 0.0 mm 15.3° 1021.5 hPa 3.0 m/s 0.0 mm 16.7° 1021.2 hPa 2.6 m/s 16.6° 1020.3 hPa 1.9 m/s
16:00 16.1° 1020.5 hPa 2.9 m/s 1.2 mm 18.5° 1018.8 hPa 5.3 m/s 13.6 mm 15.6° 1021.2 hPa 2.3 m/s 0.5 mm 14.9° 1020.8 hPa 2.1 m/s 0.0 mm 16.8° 1020.4 hPa 3.2 m/s 18.1° 1019.6 hPa 3.6 m/s
19:00 15.0° 1020.7 hPa 2.6 m/s 1.0 mm 15.9° 1018.6 hPa 4.0 m/s 13.6 mm 15.1° 1021.6 hPa 1.5 m/s 0.1 mm 14.0° 1020.9 hPa 2.0 m/s 0.0 mm 15.2° 1020.4 hPa 3.3 m/s 15.3° 1019.5 hPa 2.4 m/s
22:00 13.1° 1022.1 hPa 1.3 m/s 0.0 mm 13.6° 1020.3 hPa 2.7 m/s 13.6 mm 13.7° 1022.5 hPa 0.7 m/s 0.0 mm 13.3° 1022.2 hPa 1.6 m/s 0.0 mm 12.5° 1021.9 hPa 1.0 m/s 11.5° 1021.5 hPa 0.9 m/s
 06:59     20:10    Daglengte: 13:11 Zaterdag 11 Apr
01:00 12.4° 1021.9 hPa 0.9 m/s 0.0 mm 12.1° 1020.3 hPa 2.0 m/s 13.6 mm 13.0° 1022.4 hPa 0.8 m/s 0.0 mm 12.8° 1022.4 hPa 0.8 m/s 0.0 mm 11.5° 1021.9 hPa 0.6 m/s 11.0° 1021.5 hPa 0.4 m/s
04:00 11.8° 1020.9 hPa 0.9 m/s 0.0 mm 11.9° 1019.2 hPa 0.9 m/s 13.8 mm 12.1° 1021.7 hPa 0.3 m/s 0.0 mm 12.6° 1021.5 hPa 1.0 m/s 0.0 mm 10.4° 1020.9 hPa 1.0 m/s 10.6° 1020.5 hPa 0.5 m/s
07:00 11.3° 1020.9 hPa 0.8 m/s 0.0 mm 12.0° 1019.1 hPa 2.0 m/s 14.8 mm 11.2° 1022.0 hPa 0.0 m/s 0.0 mm 12.4° 1021.4 hPa 1.5 m/s 0.0 mm 9.8° 1020.9 hPa 0.8 m/s 11.4° 1020.5 hPa 0.2 m/s
10:00 13.1° 1021.5 hPa 0.8 m/s 0.0 mm 13.9° 1019.6 hPa 1.6 m/s 16.3 mm 13.1° 1022.9 hPa 0.5 m/s 0.0 mm 12.5° 1022.2 hPa 1.1 m/s 0.0 mm 13.2° 1021.5 hPa 0.6 m/s 13.9° 1020.7 hPa 0.9 m/s
13:00 15.7° 1020.6 hPa 1.3 m/s 0.0 mm 15.8° 1019.1 hPa 4.4 m/s 16.3 mm 16.2° 1021.8 hPa 0.6 m/s 0.0 mm 12.6° 1021.6 hPa 1.7 m/s 0.0 mm 15.8° 1020.5 hPa 0.9 m/s 16.5° 1020.1 hPa 2.4 m/s
16:00 17.2° 1018.7 hPa 2.3 m/s 0.0 mm 17.1° 1017.6 hPa 4.5 m/s 16.3 mm 17.1° 1020.2 hPa 2.4 m/s 0.0 mm 16.4° 1018.8 hPa 1.8 m/s 17.1° 1018.4 hPa 3.4 m/s
19:00 15.7° 1017.9 hPa 2.4 m/s 0.0 mm 15.6° 1016.7 hPa 4.5 m/s 16.4 mm 15.9° 1019.9 hPa 2.2 m/s 0.0 mm 15.6° 1017.9 hPa 2.1 m/s 14.6° 1017.4 hPa 2.3 m/s
22:00 12.4° 1019.0 hPa 1.7 m/s 0.0 mm 12.3° 1018.5 hPa 2.2 m/s 16.4 mm 13.3° 1020.8 hPa 0.9 m/s 0.0 mm 11.2° 1018.8 hPa 1.9 m/s 10.6° 1019.1 hPa 0.4 m/s
 06:58     20:11    Daglengte: 13:13 Zondag 12 Apr
01:00 11.0° 1018.5 hPa 0.8 m/s 0.0 mm 10.7° 1018.1 hPa 0.9 m/s 16.4 mm 11.6° 1020.0 hPa 0.5 m/s 0.0 mm 10.7° 1018.4 hPa 1.0 m/s 10.8° 1019.0 hPa 0.1 m/s
04:00 10.0° 1016.6 hPa 0.9 m/s 0.0 mm 9.9° 1016.4 hPa 1.0 m/s 16.5 mm 10.9° 1018.6 hPa 0.3 m/s 0.0 mm 8.2° 1016.3 hPa 1.3 m/s 11.2° 1017.4 hPa 0.3 m/s
07:00 9.9° 1015.9 hPa 0.6 m/s 0.0 mm 10.0° 1015.6 hPa 1.1 m/s 16.5 mm 10.9° 1018.5 hPa 0.4 m/s 0.0 mm 7.3° 1015.6 hPa 0.7 m/s 11.3° 1016.8 hPa 0.5 m/s
10:00 13.0° 1015.7 hPa 1.0 m/s 2.9 mm 13.2° 1015.8 hPa 1.1 m/s 16.5 mm 14.0° 1018.2 hPa 0.1 m/s 0.4 mm 12.4° 1014.5 hPa 1.5 m/s 14.7° 1016.8 hPa 0.5 m/s
13:00 17.3° 1014.4 hPa 2.2 m/s 6.0 mm 17.3° 1014.4 hPa 3.1 m/s 16.5 mm 17.6° 1016.0 hPa 2.2 m/s 0.1 mm 17.6° 1013.3 hPa 2.3 m/s 17.0° 1015.9 hPa 2.4 m/s
16:00 17.0° 1011.8 hPa 3.2 m/s 0.0 mm 17.7° 1012.0 hPa 5.1 m/s 16.5 mm 17.5° 1013.5 hPa 3.5 m/s 0.1 mm 16.6° 1011.2 hPa 2.6 m/s 17.3° 1013.7 hPa 2.6 m/s
19:00 15.5° 1010.0 hPa 3.2 m/s 0.0 mm 15.2° 1010.6 hPa 5.7 m/s 16.5 mm 15.6° 1011.6 hPa 2.6 m/s 0.0 mm 15.5° 1009.2 hPa 3.0 m/s 14.9° 1011.9 hPa 3.3 m/s
22:00 12.8° 1009.1 hPa 2.1 m/s 16.6 mm 12.2° 1011.2 hPa 3.7 m/s 16.6 mm 12.9° 1008.8 hPa 1.9 m/s 10.3° 1012.3 hPa 1.5 m/s
 06:56     20:12    Daglengte: 13:16 Maandag 13 Apr
01:00 10.3° 1008.4 hPa 0.9 m/s 16.9 mm 10.1° 1009.2 hPa 1.9 m/s 16.9 mm 10.3° 1008.3 hPa 0.7 m/s 9.9° 1010.2 hPa 1.2 m/s
04:00 10.5° 1007.3 hPa 1.2 m/s 10.7 mm 10.5° 1007.2 hPa 1.2 m/s 10.1° 1007.5 hPa 1.5 m/s 10.7 mm
07:00 10.5° 1006.7 hPa 1.3 m/s 13.1 mm 10.6° 1006.7 hPa 1.4 m/s 9.9° 1006.4 hPa 0.8 m/s 13.1 mm
10:00 13.6° 1006.8 hPa 2.3 m/s 13.5 mm 13.9° 1006.9 hPa 2.3 m/s 11.0° 1006.1 hPa 1.4 m/s 13.5 mm
13:00 16.8° 1006.9 hPa 3.2 m/s 13.7 mm 17.1° 1007.0 hPa 3.3 m/s 13.5° 1005.4 hPa 2.2 m/s 13.7 mm
16:00 15.8° 1007.0 hPa 2.7 m/s 13.8 mm 16.1° 1007.3 hPa 2.7 m/s 13.0° 1003.8 hPa 2.1 m/s 13.8 mm
19:00 14.7° 1007.2 hPa 2.1 m/s 13.8 mm 15.0° 1007.6 hPa 2.1 m/s 11.6° 1003.4 hPa 1.8 m/s 13.8 mm
22:00 11.7° 1008.2 hPa 1.5 m/s 13.8 mm 12.2° 1008.5 hPa 1.6 m/s 7.2° 1004.8 hPa 0.2 m/s 13.8 mm
 06:55     20:13    Daglengte: 13:18 Dinsdag 14 Apr
01:00 9.2° 1009.0 hPa 1.1 m/s 13.8 mm 9.3° 1009.4 hPa 1.1 m/s 8.7° 1004.7 hPa 0.6 m/s 13.8 mm
04:00 8.7° 1008.5 hPa 1.6 m/s 13.8 mm 8.8° 1008.9 hPa 1.7 m/s 8.7° 1003.6 hPa 0.4 m/s 13.8 mm
07:00 8.3° 1008.0 hPa 2.2 m/s 13.8 mm 8.2° 1008.4 hPa 2.3 m/s 8.9° 1003.5 hPa 0.7 m/s 13.8 mm
10:00 13.4° 1007.8 hPa 3.0 m/s 13.8 mm 13.4° 1008.3 hPa 3.2 m/s 13.3° 1002.8 hPa 0.9 m/s 13.8 mm
13:00 18.5° 1007.7 hPa 4.0 m/s 13.8 mm 18.6° 1008.2 hPa 4.1 m/s 17.3° 1001.6 hPa 2.6 m/s 13.8 mm
16:00 16.6° 1007.2 hPa 3.5 m/s 13.9 mm 16.6° 1007.9 hPa 3.4 m/s 16.6° 999.5 hPa 4.1 m/s 13.9 mm
19:00 14.5° 1006.7 hPa 2.7 m/s 13.9 mm 14.5° 1007.5 hPa 2.7 m/s 14.0° 998.4 hPa 2.5 m/s 13.9 mm
22:00 13.0° 1006.6 hPa 2.4 m/s 14.0 mm 13.4° 1007.2 hPa 2.5 m/s 8.8° 999.5 hPa 0.8 m/s 14.0 mm
 06:53     20:14    Daglengte: 13:21 Woensdag 15 Apr
01:00 12.0° 1006.4 hPa 2.1 m/s 14.0 mm 12.3° 1007.0 hPa 2.3 m/s 8.7° 999.3 hPa 0.5 m/s 14.0 mm
04:00 11.8° 1005.6 hPa 2.8 m/s 14.0 mm 12.1° 1006.2 hPa 3.0 m/s 8.6° 998.5 hPa 1.0 m/s 14.0 mm
07:00 11.6° 1004.9 hPa 3.4 m/s 14.8 mm 11.8° 1005.4 hPa 3.7 m/s 9.4° 999.1 hPa 0.7 m/s 14.8 mm
10:00 12.8° 1005.4 hPa 5.5 m/s 15.3 mm 12.9° 1005.9 hPa 5.8 m/s 12.6° 1000.3 hPa 2.0 m/s 15.3 mm
13:00 13.9° 1006.0 hPa 7.5 m/s 16.8 mm 13.9° 1006.4 hPa 7.9 m/s 13.6° 1001.3 hPa 2.6 m/s 16.8 mm
16:00 13.3° 1007.7 hPa 5.9 m/s 17.5 mm 13.1° 1008.3 hPa 6.2 m/s 15.8° 1001.0 hPa 2.6 m/s 17.5 mm
19:00 12.4° 1009.5 hPa 4.2 m/s 17.8 mm 12.3° 1010.3 hPa 4.5 m/s 13.8° 1001.2 hPa 1.2 m/s 17.8 mm
22:00 11.9° 1009.2 hPa 4.1 m/s 17.8 mm 11.9° 1009.8 hPa 4.3 m/s 10.9° 1002.2 hPa 1.9 m/s 17.8 mm
 06:51     20:16    Daglengte: 13:25 Donderdag 16 Apr
01:00 11.5° 1008.7 hPa 3.9 m/s 20.5 mm 11.6° 1009.3 hPa 4.1 m/s 10.1° 1002.4 hPa 1.5 m/s 20.5 mm
04:00 11.3° 1007.8 hPa 4.5 m/s 25.8 mm 11.4° 1008.4 hPa 4.8 m/s 9.5° 1001.6 hPa 1.4 m/s 25.8 mm
07:00 11.1° 1007.0 hPa 5.2 m/s 26.8 mm 11.3° 1007.5 hPa 5.4 m/s 8.9° 1001.8 hPa 3.1 m/s 26.8 mm
10:00 12.3° 1007.8 hPa 5.9 m/s 28.3 mm 12.6° 1008.3 hPa 6.3 m/s 10.0° 1002.4 hPa 1.5 m/s 28.3 mm
13:00 13.6° 1008.6 hPa 6.8 m/s 30.0 mm 13.8° 1009.1 hPa 7.2 m/s 11.6° 1003.4 hPa 2.7 m/s 30.0 mm
16:00 13.5° 1009.0 hPa 6.2 m/s 34.1 mm 13.4° 1009.5 hPa 6.3 m/s 13.5° 1003.5 hPa 4.0 m/s 34.1 mm
19:00 13.1° 1009.4 hPa 5.3 m/s 34.7 mm 13.1° 1009.8 hPa 5.5 m/s 12.9° 1004.5 hPa 2.6 m/s 34.7 mm
 06:50     20:17    Daglengte: 13:27 Vrijdag 17 Apr
01:00 10.8° 1011.1 hPa 3.8 m/s 34.7 mm 11.0° 1011.4 hPa 4.0 m/s 8.2° 1007.6 hPa 1.6 m/s 34.7 mm
07:00 10.1° 1011.3 hPa 3.5 m/s 34.7 mm 10.3° 1011.7 hPa 3.7 m/s 7.6° 1007.2 hPa 1.6 m/s 34.7 mm
13:00 14.3° 1012.5 hPa 2.5 m/s 35.0 mm 14.0° 1013.0 hPa 2.6 m/s 17.9° 1006.7 hPa 2.0 m/s 35.0 mm
19:00 13.4° 1012.6 hPa 1.9 m/s 36.6 mm 13.3° 1013.2 hPa 1.8 m/s 14.6° 1005.6 hPa 2.6 m/s 36.6 mm
 06:48     20:18    Daglengte: 13:30 Zaterdag 18 Apr
01:00 9.0° 1014.7 hPa 1.1 m/s 36.7 mm 9.1° 1015.3 hPa 1.1 m/s 8.5° 1008.7 hPa 0.9 m/s 36.7 mm
07:00 6.6° 1015.3 hPa 1.0 m/s 36.7 mm 6.5° 1015.8 hPa 1.0 m/s 7.1° 1010.4 hPa 0.5 m/s 36.7 mm
13:00 16.5° 1016.1 hPa 2.0 m/s 36.8 mm 16.4° 1016.5 hPa 1.9 m/s 17.7° 1011.6 hPa 3.7 m/s 36.8 mm
19:00 15.3° 1015.8 hPa 4.1 m/s 36.9 mm 15.3° 1016.0 hPa 4.1 m/s 15.0° 1013.1 hPa 4.5 m/s 36.9 mm
 06:47     20:19    Daglengte: 13:32 Zondag 19 Apr
01:00 8.3° 1018.2 hPa 1.8 m/s 36.9 mm 8.3° 1018.2 hPa 1.8 m/s 36.9 mm
07:00 6.3° 1019.5 hPa 2.0 m/s 36.9 mm 6.3° 1019.5 hPa 2.0 m/s 36.9 mm
13:00 18.9° 1019.3 hPa 2.5 m/s 36.9 mm 18.9° 1019.3 hPa 2.5 m/s 36.9 mm
19:00 14.2° 1013.2 hPa 2.8 m/s 1.2 mm
 06:45     20:20    Daglengte: 13:35 Maandag 20 Apr
01:00 11.4° 1014.6 hPa 1.4 m/s 0.7 mm
07:00 10.8° 1014.1 hPa 1.3 m/s 0.7 mm
13:00 15.3° 1014.3 hPa 1.2 m/s 0.5 mm
19:00 14.5° 1013.2 hPa 3.1 m/s 1.0 mm
 06:44     20:21    Daglengte: 13:37 Dinsdag 21 Apr
01:00 11.5° 1014.7 hPa 1.4 m/s 0.4 mm
07:00 10.9° 1013.9 hPa 1.6 m/s 0.7 mm
13:00 15.1° 1014.2 hPa 2.1 m/s 1.1 mm
19:00 14.3° 1012.8 hPa 3.2 m/s 1.1 mm
 06:42     20:22    Daglengte: 13:40 Woensdag 22 Apr
01:00 11.8° 1014.0 hPa 1.9 m/s 1.9 mm
07:00 11.0° 1013.4 hPa 1.6 m/s 1.9 mm
13:00 15.4° 1013.8 hPa 1.4 m/s 0.7 mm
19:00 14.3° 1012.6 hPa 3.2 m/s 1.2 mm
 06:41     20:23    Daglengte: 13:42 Donderdag 23 Apr
01:00 11.3° 1014.1 hPa 1.9 m/s 0.7 mm
07:00 10.6° 1013.7 hPa 1.6 m/s 0.5 mm
13:00 15.6° 1013.5 hPa 1.0 m/s 0.4 mm
19:00 14.6° 1012.8 hPa 3.0 m/s 1.4 mm
 06:40     20:24    Daglengte: 13:44 Vrijdag 24 Apr
01:00 11.4° 1014.8 hPa 1.7 m/s 0.8 mm
07:00 10.7° 1014.5 hPa 1.5 m/s 0.7 mm
13:00 16.0° 1014.5 hPa 0.6 m/s 0.4 mm
19:00 14.8° 1013.7 hPa 2.1 m/s 0.7 mm
FMI Hirlam - 7.5 km EWN WRFDA - 12 km DWD ICON - 7 km GFS - 25 km Basiskaart






























































Updatetijd (Europe/Amsterdam) Resolutie Lengte Stap
FMI Hirlam 19:00, 01:00, 07:00, 13:00 7.5 km 49h 1h
EWN WRFDA 21:15, 03:15, 09:15, 15:15 12 km 73h 1h
DWD ICON 17:45, 23:45, 05:45, 11:45 7 km 75h 1h
GFS 19:30, 01:30, 07:30, 13:30 25 km 237h 3h
30+ mm
25-30 mm
20-25 mm
15-20 mm
10-15 mm
6-10 mm
4-6 mm
2-4 mm
1-2 mm
0.5-1 mm
0.2-0.5 mm
0.1-0.2 mm
30+ mm
25-30 mm
20-25 mm
15-20 mm
10-15 mm
6-10 mm
4-6 mm
2-4 mm
1-2 mm
0.5-1 mm
0.2-0.5 mm
0.1-0.2 mm
Sneeuwval
Natte sneeuw
Hagel
Vorst
30+ mm
25-30 mm
20-25 mm
15-20 mm
10-15 mm
6-10 mm
4-6 mm
2-4 mm
1-2 mm
0.5-1 mm
0.2-0.5 mm
0.1-0.2 mm
Sneeuwval
Natte sneeuw
Hagel
Vorst
Onweer
50 mm
40 mm
30 mm
26 mm
22 mm
18 mm
14 mm
10 mm
9 mm
8 mm
7 mm
6 mm
5 mm
4.5 mm
4 mm
3.5 mm
3 mm
2.5 mm
2 mm
1.5 mm
1 mm
0.8 mm
0.6 mm
0.4 mm
0.2 mm
0.05 mm
35°
30°
25°
20°
15°
10°
-5°
-10°
-15°
-20°
-25°
-30°
-35°
120> km/h
105 km/h
90 km/h
75 km/h
60 km/h
50 km/h
40 km/h
30 km/h
20 km/h
10 km/h
0 km/h
2600 J/kg
2400 J/kg
2200 J/kg
2000 J/kg
1800 J/kg
1600 J/kg
1400 J/kg
1200 J/kg
1000 J/kg
800 J/kg
600 J/kg
400 J/kg
200 J/kg
70 dBZ
65 dBZ
60 dBZ
55 dBZ
50 dBZ
45 dBZ
40 dBZ
35 dBZ
30 dBZ
25 dBZ
20 dBZ
15 dBZ
10 dBZ
5 dBZ
-1 K
-2 K
-3 K
-4 K
-5 K
-6 K
-7 K
-8 K
-9 K
950 m²/s²
900 m²/s²
850 m²/s²
800 m²/s²
750 m²/s²
700 m²/s²
650 m²/s²
600 m²/s²
550 m²/s²
500 m²/s²
450 m²/s²
400 m²/s²
350 m²/s²
300 m²/s²
250 m²/s²
200 m²/s²
150 m²/s²
100 m²/s²
46 m/s
44 m/s
42 m/s
40 m/s
38 m/s
36 m/s
34 m/s
32 m/s
30 m/s
28 m/s
26 m/s
24 m/s
22 m/s
20 m/s
16 m/s
12 m/s
8 m/s
4 m/s
30 m/s
28 m/s
26 m/s
24 m/s
22 m/s
20 m/s
18 m/s
16 m/s
14 m/s
12 m/s
10 m/s
8 m/s
6 m/s
4 m/s
2 m/s
3.0
2.8
2.6
2.4
2.2
2.0
1.8
1.6
1.4
1.2
1.0
0.8
0.6
0.4
0.2
15
14
13
12
11
10
9
8
7
6
5
4
3
2
1
90%
80%
70%
60%
50%
40%
30%
20%
10%
42
40
38
36
34
32
30
28
26
24
22
20
18
16
14
12
90+ cm
80-90 cm
70-80 cm
60-70 cm
50-60 cm
40-50 cm
30-40 cm
20-30 cm
10-20 cm
1-10 cm
Sneeuwval
Natte sneeuw
Regen
>120 mm
115 mm
110 mm
105 mm
100 mm
95 mm
90 mm
85 mm
80 mm
75 mm
70 mm
65 mm
60 mm
55 mm
50 mm
45 mm
45 mm
40 mm
35 mm
30 mm
25 mm
20 mm
15 mm
10 mm
5 mm
0.1 mm
960 hPa
880 hPa
800 hPa
720 hPa
640 hPa
560 hPa
584 gpdm
568 gpdm
552 gpdm
536 gpdm
520 gpdm
504 gpdm
488 gpdm
Extreem zwaar Noodweer Kans op onweer
15% 15% 5% 50% 15%

Dag




Kaart






<
35°
30°
25°
20°
15°
10°